Probability
4 4 4 3 2 2 1 0 0 0 0 0 0 0 0 0 0 0 0 0 0 0 0 0 0 0 0 0 0 0 0 0 0 0 0 0 0 0 0 0 0 0 0
6 5 4 3 3 3 2 1 0 0 0 0 0 0 0 0 0 0 0 0 0 0 0 0 0 0 0 0 0 0 0 0 0 0 0 0 0 0 0 0 0 0 0
7 6 4 3 3 4 3 1 0 0 0 0 0 0 0 0 0 0 0 0 0 0 0 0 0 0 0 0 0 0 0 0 0 0 0 0 0 0 0 0 0 0 0
7 7 5 4 4 4 3 1 0 0 0 0 0 0 0 0 0 0 0 0 0 0 0 0 0 0 0 0 0 0 0 0 0 0 0 0 0 0 0 0 0 0 0
6 7 7 6 6 5 3 1 0 0 0 0 0 0 0 0 0 0 0 0 0 0 0 0 0 0 0 0 0 0 0 0 0 0 0 0 0 0 0 0 0 0 0
5 6 6 7 7 6 4 2 1 0 0 0 0 0 0 0 0 0 0 0 0 0 0 0 0 0 0 0 0 0 0 0 0 0 0 0 0 0 0 0 0 0 0
8 7 6 7 9 8 6 4 3 1 0 0 0 0 0 0 0 0 0 0 0 0 0 0 0 1 1 0 0 0 0 0 0 0 0 0 0 0 0 0 0 0 0
15 12 10 10 11 10 7 5 4 3 1 0 0 0 0 0 0 0 0 0 0 0 0 0 1 1 1 0 0 0 0 0 0 0 0 0 0 0 0 0 0 0 0
20 17 15 14 13 9 7 6 4 2 0 0 1 1 1 0 0 0 0 0 0 0 0 0 1 1 1 1 1 0 0 0 0 0 0 0 0 0 0 0 0 0 0
21 20 17 16 13 9 7 6 4 2 1 1 2 2 1 1 0 0 0 0 0 0 0 0 0 0 1 1 2 1 0 0 0 0 0 0 0 0 0 0 0 0 0
22 20 17 14 11 8 8 8 6 4 3 2 3 3 1 1 0 0 0 0 0 0 0 1 1 0 0 1 1 1 0 0 0 0 0 0 0 0 0 0 0 0 0
24 21 17 14 10 8 9 9 7 6 4 4 4 4 2 1 1 1 1 0 0 0 1 2 2 1 0 0 0 0 0 0 0 0 0 0 0 0 0 0 0 0 0
24 23 21 17 14 12 11 10 9 7 5 4 4 4 3 1 1 1 1 1 0 0 1 2 3 2 0 0 0 0 0 0 0 0 0 0 0 0 0 0 0 0 0
19 21 22 20 18 16 14 13 11 8 6 4 3 3 3 2 1 1 0 0 0 0 0 1 2 1 0 0 0 0 0 0 0 0 0 0 0 0 0 0 0 0 0
14 16 18 18 16 16 17 17 14 11 9 6 4 3 4 4 3 1 1 1 1 0 0 0 1 0 0 0 0 0 0 0 0 0 0 0 0 0 0 0 0 0 0
13 13 14 12 11 12 15 17 15 13 12 9 7 5 5 6 5 4 3 3 2 1 1 1 1 1 0 0 0 0 0 0 0 0 0 0 0 0 0 0 0 0 0
14 14 13 10 8 9 12 13 12 12 13 13 11 9 7 6 7 6 5 4 3 3 2 1 1 1 1 1 0 0 0 0 0 0 0 0 0 0 0 0 0 0 0
15 15 13 10 7 8 11 11 9 10 12 14 14 11 7 6 7 7 5 3 3 3 2 2 2 3 2 1 1 1 1 1 1 0 0 0 0 0 0 0 0 0 0
14 14 12 10 8 9 11 12 10 9 9 11 13 10 5 4 6 5 4 2 2 2 2 3 3 3 3 3 2 1 2 3 1 0 0 0 0 0 0 0 0 0 0
13 12 11 10 11 11 12 12 11 9 8 9 9 7 3 2 3 4 3 1 1 2 3 3 3 3 3 4 3 1 1 2 2 0 0 0 0 0 0 0 0 0 0
11 11 10 9 10 10 9 9 9 9 9 8 6 5 2 1 1 2 2 1 2 3 4 3 2 2 3 4 4 2 1 2 3 2 1 1 0 1 2 2 0 0 0
11 11 9 8 8 6 4 4 5 7 9 8 6 5 3 1 1 1 1 1 1 2 3 2 1 1 2 3 4 4 4 4 6 6 5 3 1 3 5 4 1 0 0
11 10 9 7 6 4 1 0 2 4 7 7 6 6 5 4 3 3 2 1 1 1 1 1 1 1 3 4 5 7 8 9 10 10 8 4 3 5 6 4 1 0 0
8 9 9 8 6 4 1 0 0 2 5 6 6 7 8 7 5 4 5 5 6 4 2 0 1 2 3 5 6 8 10 11 12 11 8 5 5 5 5 5 2 0 0
7 9 10 9 7 5 2 1 1 3 7 8 8 8 8 8 6 4 6 9 9 7 3 1 1 1 2 2 4 6 8 8 7 8 9 8 7 6 6 5 3 2 1
8 9 9 9 8 6 3 1 1 5 10 11 11 9 7 7 5 3 6 10 10 7 5 2 1 0 0 0 1 4 6 4 2 4 9 11 10 7 5 4 4 3 3
Wind_Speed
6 6 4 4 4 5 5 4 4 5 4 5 4 5 4 4 5 5 7 9 7 7 7 8 8 8 8 7 7 7 7 7 6 6 6 6 6 6 6 6 5 5 4
5 5 5 4 4 4 3 3 5 4 3 4 4 5 4 5 5 5 7 9 8 7 7 7 7 7 7 7 6 7 7 6 6 6 6 6 6 6 6 6 5 5 5
6 5 5 5 4 4 4 3 4 4 4 4 4 5 4 4 5 4 4 5 8 8 7 6 6 7 6 7 7 7 7 6 6 6 6 6 6 6 6 6 6 5 5
7 6 5 5 5 4 4 4 4 4 3 3 3 3 4 4 5 4 4 4 3 6 9 8 6 6 6 7 7 7 7 7 7 7 7 7 6 6 6 6 6 6 6
8 6 5 4 6 5 4 5 4 3 3 3 3 3 3 4 4 4 4 4 4 3 5 9 8 7 7 7 7 8 8 8 8 8 8 7 7 7 6 6 7 7 7
8 7 5 6 6 5 4 3 4 3 2 3 3 3 3 3 3 4 4 4 4 5 5 5 7 8 8 7 7 7 8 8 8 8 8 8 8 7 7 7 7 7 7
9 7 6 6 5 5 5 6 5 6 4 3 3 3 3 4 4 3 4 3 5 5 4 4 4 4 6 9 7 6 7 8 8 8 8 8 8 7 7 7 7 6 6
9 8 7 7 7 5 6 6 5 4 4 5 4 3 3 4 5 5 5 5 5 5 5 6 4 4 3 4 6 8 7 7 7 8 8 8 7 7 7 7 7 6 6
10 9 9 8 7 7 7 7 7 7 5 5 4 4 3 3 4 5 5 5 4 4 5 4 6 5 5 4 5 9 8 6 7 7 8 8 7 7 7 7 7 7 7
10 10 10 9 8 8 7 8 8 6 6 5 5 4 4 3 2 3 5 6 6 6 5 4 5 6 6 5 4 4 8 7 7 7 8 8 8 7 8 8 8 8 8
10 10 11 10 9 8 8 8 7 8 7 7 5 5 5 4 6 4 3 4 5 6 6 6 4 4 5 5 5 7 9 8 7 7 7 7 8 8 8 8 9 9 9
8 11 11 10 10 8 9 9 8 9 8 7 6 6 5 5 5 4 4 4 4 4 5 4 5 5 5 6 7 9 9 8 8 8 7 7 7 7 8 8 9 9 9
8 10 10 10 9 9 9 9 9 8 9 8 8 7 6 6 4 4 4 4 3 3 4 5 5 5 5 5 5 10 9 10 9 9 8 8 8 7 8 8 9 10 10
9 9 10 10 10 9 10 9 8 9 8 8 9 8 6 6 5 5 5 4 4 5 5 5 4 5 4 5 4 9 8 12 10 9 9 9 8 8 8 8 9 9 9
8 10 11 11 10 10 10 10 8 9 8 9 9 9 8 6 5 5 5 5 5 5 5 5 4 4 4 4 5 7 7 10 11 10 10 10 9 9 9 9 9 9 10
9 10 10 10 10 10 11 10 9 9 9 9 7 8 8 7 5 5 6 5 6 6 5 3 3 4 3 4 6 7 7 8 11 11 11 10 10 10 10 10 10 10 10
10 11 11 10 10 10 10 10 10 10 11 10 10 10 10 8 6 6 6 6 6 6 6 5 4 3 4 6 4 6 7 7 8 13 12 11 11 10 10 10 10 10 10
10 10 10 11 11 11 11 12 12 11 11 11 11 10 10 8 8 7 6 7 6 5 7 7 5 4 6 6 5 6 7 7 7 10 12 11 11 10 10 10 10 10 10
10 11 11 11 11 11 12 12 11 11 11 11 10 10 10 10 10 8 8 7 6 7 6 7 7 4 5 5 5 7 8 5 8 7 11 12 11 11 11 10 10 10 10
11 11 11 11 11 11 12 12 11 11 10 10 10 10 10 10 10 9 8 8 7 7 6 7 7 6 5 5 5 7 7 7 7 7 6 6 9 11 12 12 11 11 10
11 10 10 11 11 10 10 11 11 11 10 10 9 9 10 9 8 7 7 7 7 7 7 7 7 6 6 5 6 6 6 6 6 6 6 6 7 8 10 12 13 11 10
9 9 10 10 10 9 8 9 9 9 9 9 9 9 9 9 10 9 8 6 6 8 8 7 7 6 5 6 5 6 6 7 7 5 6 7 7 7 7 7 8 11 10
9 9 9 9 9 7 8 10 10 8 8 8 8 8 8 8 10 10 10 9 9 9 8 8 8 7 6 5 6 8 7 7 8 5 5 8 7 7 7 4 7 8 9
6 6 7 8 7 7 10 11 10 9 8 8 8 9 8 7 8 8 8 9 9 9 10 9 8 7 6 5 5 7 7 7 8 8 6 8 7 7 6 4 7 9 9
6 6 6 6 6 6 10 11 10 7 7 8 8 7 8 8 6 6 7 8 8 8 8 8 7 5 3 2 4 6 7 7 8 7 5 7 7 7 7 7 5 11 11
5 5 5 5 5 5 7 10 11 7 7 6 6 6 6 6 5 7 8 8 9 8 7 6 7 7 7 7 7 8 7 8 7 7 3 4 6 6 7 6 4 4 7
Wind_Direction
154 145 142 150 157 146 156 158 141 132 133 135 132 126 122 112 118 117 122 141 147 150 149 150 152 152 151 152 153 155 155 155 155 156 157 158 159 159 159 162 162 164 162
153 153 156 161 156 158 150 159 144 147 147 135 139 137 146 134 126 134 135 144 154 159 160 158 162 163 164 165 166 171 170 168 167 169 170 173 175 176 177 179 179 178 179
161 168 162 169 159 152 150 163 149 156 160 155 144 147 145 140 131 138 145 148 154 163 170 172 174 175 178 182 181 182 182 181 180 181 183 184 184 188 190 192 192 191 192
175 183 172 170 159 168 169 160 176 172 164 163 155 160 142 145 144 156 161 167 167 160 167 177 185 188 193 196 194 193 193 195 196 196 196 197 197 198 200 199 200 201 203
184 192 181 162 175 178 181 186 163 187 171 172 168 161 158 154 157 168 168 174 174 183 164 159 181 195 204 208 206 204 204 206 206 206 205 206 206 208 209 211 212 213 215
189 194 183 175 190 185 182 187 159 184 191 197 199 153 171 162 180 171 194 179 180 193 192 171 179 186 194 205 209 208 208 210 209 208 210 211 210 210 212 214 215 217 220
189 197 197 176 196 191 191 189 185 184 192 195 193 178 183 194 192 194 206 200 189 194 189 195 208 191 176 185 196 202 207 207 206 207 209 210 210 209 209 211 213 217 222
194 197 204 196 195 194 196 197 197 207 195 192 212 202 196 191 203 203 195 205 208 197 198 199 196 204 224 180 162 189 204 207 205 205 206 207 209 209 209 211 212 215 220
201 207 202 207 198 206 199 200 202 211 209 203 222 231 223 214 188 182 205 206 208 218 218 197 201 196 211 205 182 181 192 203 209 211 210 209 209 209 211 214 217 220 224
206 205 206 206 205 213 204 206 207 214 216 213 206 239 269 313 254 190 192 192 202 214 224 225 206 198 208 209 187 172 183 198 208 216 218 216 215 215 218 222 227 230 232
210 210 207 208 209 215 211 217 207 219 220 223 216 211 217 225 248 254 218 200 202 206 206 215 222 216 206 214 208 184 179 196 206 215 221 223 222 220 222 227 234 239 240
206 211 211 211 211 213 210 213 213 214 227 229 233 227 220 219 230 239 239 228 220 209 204 217 223 220 213 214 212 153 178 197 208 215 221 224 224 224 228 233 238 243 246
205 207 211 212 214 212 211 211 209 218 218 220 226 230 234 235 237 244 253 248 242 222 202 220 219 225 223 219 195 166 192 201 210 215 220 224 228 232 236 239 241 245 249
211 203 206 211 215 214 213 208 212 213 215 218 225 227 235 237 232 235 245 252 246 236 219 223 205 215 230 226 177 186 206 195 208 216 221 226 231 235 238 241 243 247 250
213 208 207 210 213 215 217 209 216 215 211 217 220 216 228 230 228 234 240 247 255 254 236 204 217 202 220 226 168 217 224 189 201 214 221 227 231 235 238 241 244 247 249
210 208 207 210 211 213 214 214 213 212 213 216 224 226 224 227 219 226 234 238 248 261 269 249 219 217 211 238 186 228 233 176 202 214 221 226 230 235 238 241 244 246 247
207 208 208 212 213 213 214 213 218 211 215 216 217 217 218 227 221 224 227 233 238 246 255 258 244 213 206 249 215 228 232 225 211 201 212 221 229 233 237 241 243 246 248
208 209 210 211 214 215 215 215 217 215 216 219 218 217 219 216 218 232 230 233 235 243 252 258 256 231 217 230 231 239 241 232 243 188 199 215 224 229 234 237 238 241 245
207 209 210 212 215 215 215 216 217 218 218 220 217 216 219 218 218 222 225 232 231 231 240 251 248 240 231 227 229 236 243 250 256 209 194 208 216 224 228 231 234 236 239
207 208 211 214 215 216 215 215 214 216 218 218 217 217 219 219 221 222 221 227 233 237 233 244 248 235 227 218 231 242 239 222 242 253 232 216 207 214 223 227 230 232 235
209 208 211 214 214 215 217 214 212 213 215 217 217 219 221 221 226 227 231 222 222 229 233 236 243 241 234 223 234 242 249 250 239 245 250 241 220 222 216 220 222 224 228
210 207 211 214 214 217 198 201 215 216 213 215 217 219 219 212 213 214 234 244 242 234 239 245 246 245 246 244 249 257 260 259 257 233 245 254 251 250 244 243 194 195 215
207 208 210 211 213 209 181 187 203 222 219 217 218 218 224 216 205 215 210 217 231 239 245 251 254 257 251 244 253 252 252 265 273 275 257 262 256 256 257 245 166 189 212
206 209 212 212 214 202 178 185 192 215 225 223 222 221 222 223 216 215 217 217 224 222 220 228 245 254 259 267 251 258 269 259 257 252 250 265 269 265 266 256 180 197 214
206 206 210 211 214 201 179 183 187 209 218 224 223 221 221 221 196 190 217 227 232 232 218 220 237 252 286 287 273 260 255 257 260 255 228 253 270 275 272 264 216 193 212
209 206 203 206 210 206 179 182 190 211 213 214 210 210 207 218 182 184 216 226 233 238 238 211 213 224 230 224 220 241 255 259 266 266 239 249 272 281 276 265 263 231 227